Location: Boss Branch
(32.3799°N, 97.2508°W)
Time: 14:53:26
(UTC+00:00)

Vanguard 2 - All Passes

Search period start: 02 November 2024 00:00
Search period end: 12 November 2024 00:00
Orbit: 551 x 2911 km, 32.9° (Epoch: 01 November)

Date Brightness Start Highest point End Pass type
(mag) Time Alt. Az. Time Alt. Az. Time Alt. Az.
02 Nov - 00:11:45 10° WNW 00:28:41 54° SSW 00:42:33 10° SE visible
02 Nov - 02:27:54 10° W 02:38:11 20° SW 02:46:40 10° S visible
02 Nov - 15:47:28 10° SSW 15:55:28 34° SE 16:07:24 10° E daylight
02 Nov - 17:53:38 10° WSW 18:04:51 75° SSE 18:21:49 10° ENE daylight
02 Nov - 20:02:43 10° W 20:17:09 88° N 20:35:16 10° E daylight
02 Nov - 22:13:28 10° WNW 22:30:24 79° SSW 22:47:07 10° ESE daylight
03 Nov - 00:25:54 10° WNW 00:42:10 46° SW 00:55:37 10° SSE visible
03 Nov - 02:44:30 10° WSW 02:51:19 14° SW 02:57:22 10° SSW visible
03 Nov - 16:00:25 10° SSW 16:08:45 43° SE 16:21:44 10° E daylight
03 Nov - 18:07:18 10° WSW 18:18:40 82° SSE 18:35:49 10° E daylight
03 Nov - 20:16:37 10° W 20:31:11 89° N 20:49:17 10° E daylight
03 Nov - 22:27:23 10° WNW 22:44:14 72° SSW 23:00:45 10° ESE daylight
04 Nov - 00:40:15 10° W 00:55:31 38° SW 01:08:25 10° SSE visible
04 Nov - 14:11:03 10° SSE 14:14:44 14° SE 14:19:11 10° ESE daylight
04 Nov - 16:13:35 10° SW 16:22:08 52° SSE 16:35:53 10° ENE daylight
04 Nov - 18:21:03 10° WSW 18:32:32 87° S 18:49:51 10° E daylight
04 Nov - 20:30:29 10° W 20:45:12 89° S 21:03:15 10° ESE daylight
04 Nov - 22:41:18 10° WNW 22:57:58 64° SSW 23:14:13 10° SE daylight
05 Nov - 00:54:53 10° W 01:08:49 30° SW 01:20:52 10° SSE visible
05 Nov - 14:22:36 10° S 14:27:49 20° SE 14:34:51 10° E daylight
05 Nov - 16:26:57 10° SW 16:35:39 62° SSE 16:49:56 10° ENE daylight
05 Nov - 18:34:50 10° W 18:46:29 89° N 19:03:53 10° E daylight
05 Nov - 20:44:21 10° W 20:59:09 85° SSW 21:17:09 10° ESE daylight
05 Nov - 22:55:17 10° WNW 23:11:35 56° SSW 23:27:30 10° SE daylight
06 Nov - 01:10:00 10° W 01:22:05 23° SW 01:32:48 10° S visible
06 Nov - 14:35:02 10° SSW 14:40:58 27° SE 14:49:40 10° E daylight
06 Nov - 16:40:29 10° WSW 16:49:17 72° SSE 17:03:57 10° ENE daylight
06 Nov - 18:48:38 10° W 19:00:27 88° N 19:17:56 10° E daylight
06 Nov - 20:58:12 10° W 21:13:03 79° SSW 21:30:56 10° ESE daylight
06 Nov - 23:09:22 10° W 23:25:08 47° SW 23:40:33 10° SSE daylight
07 Nov - 01:26:00 10° W 01:35:21 17° SW 01:43:55 10° SSW visible
07 Nov - 14:47:52 10° SSW 14:54:11 36° SE 15:04:03 10° E daylight
07 Nov - 16:54:05 10° WSW 17:03:01 80° SSE 17:17:57 10° E daylight
07 Nov - 19:02:28 10° W 19:14:25 88° N 19:31:59 10° E daylight
07 Nov - 21:12:03 10° WNW 21:26:53 72° SSW 21:44:35 10° ESE daylight
07 Nov - 23:23:38 10° W 23:38:37 39° SW 23:53:19 10° SSE daylight
08 Nov - 01:44:31 10° WSW 01:48:39 11° SW 01:52:39 10° SW visible
08 Nov - 15:00:59 10° SW 15:07:32 46° SSE 15:18:13 10° E daylight
08 Nov - 17:07:47 10° WSW 17:16:50 87° SSE 17:31:57 10° E daylight
08 Nov - 19:16:17 10° W 19:28:22 89° S 19:45:58 10° ESE daylight
08 Nov - 21:25:55 10° WNW 21:40:38 64° SSW 21:58:04 10° SE daylight
08 Nov - 23:38:08 10° W 23:52:02 32° SW 00:05:45 10° SSE visible
09 Nov - 13:11:02 10° SSE 13:13:54 13° SE 13:17:22 10° ESE daylight
09 Nov - 15:14:18 10° SW 15:21:00 57° SSE 15:32:16 10° ENE daylight
09 Nov - 17:21:31 10° W 17:30:42 89° N 17:45:59 10° E daylight
09 Nov - 19:30:04 10° W 19:42:17 85° SSW 19:59:53 10° ESE daylight
09 Nov - 21:39:50 10° W 21:54:19 56° SSW 22:11:19 10° SE daylight
09 Nov - 23:53:05 10° W 00:05:27 25° SW 00:17:43 10° S visible
10 Nov - 13:22:57 10° S 13:27:04 20° SE 13:32:35 10° E daylight
10 Nov - 15:27:47 10° WSW 15:34:34 68° SSE 15:46:14 10° ENE daylight
10 Nov - 17:35:17 10° W 17:44:35 87° N 18:00:01 10° E daylight
10 Nov - 19:43:51 10° W 19:56:08 79° SSW 20:13:42 10° ESE daylight
10 Nov - 21:53:51 10° W 22:07:57 47° SSW 22:24:20 10° SE daylight
11 Nov - 00:08:48 10° W 00:18:53 18° SW 00:28:55 10° S visible
11 Nov - 13:35:36 10° SSW 13:40:18 28° SE 13:47:05 10° E daylight
11 Nov - 15:41:21 10° WSW 15:48:15 78° SSE 16:00:12 10° E daylight
11 Nov - 17:49:02 10° W 17:58:29 88° N 18:14:03 10° E daylight
11 Nov - 19:57:38 10° W 20:09:56 71° SSW 20:27:21 10° ESE daylight
11 Nov - 22:08:01 10° W 22:21:33 39° SW 22:37:05 10° SSE daylight
